User: anonymous   Login
Location: *
(31.2983°S, 151.4094°E)
Time: 14:44:42
(UTC+00:00)
Language:

Cosmos 1825 - Orbit

View from above orbital plane
View from above orbital plane
View from above satellite
View from above satellite

Ground track
Ground track

The orbit data is extracted from the following two-line orbital elements,

1 17566U 87024A   19291.74283703 +.00000480 +00000-0 +20860-4 0  9994
2 17566 082.5056 163.1447 0005194 110.9200 249.2591 15.19794905783157
Epoch (UTC): 18 October 2019 17:49:41
Eccentricity: 0.0005194
inclination: 82.5056°
perigee height: 503 km
apogee height: 510 km
right ascension of ascending node: 163.1447°
argument of perigee: 110.9200°
revolutions per day: 15.19794905
mean anomaly at epoch: 249.2591°
orbit number at epoch: 78315

The dashed part of the orbit path shows where the satellite is in the earth's shadow,  

DLR